Weather History for Syracuse, NY

Change the Weather History Date:

Saturday, April 20, 2013

  Actual Average Record
Temperature  
Mean Temperature 40 °F 49 °F  
Max Temperature 48 °F 59 °F 90 °F (1941)
Min Temperature 31 °F 38 °F 20 °F (1904)
Degree Days  
Heating Degree Days 25 16  
Month to date heating degree days 418 404  
Since 1 July heating degree days 5753 6192  
Cooling Degree Days 0 0  
Month to date cooling degree days 0 0  
Year to date cooling degree days 0 0  
Moisture  
Dew Point 26 °F    
Average Humidity 54    
Maximum Humidity 67    
Minimum Humidity 41    
Precipitation  
Precipitation T in 0.10 in 1.36 in (2011)
Month to date precipitation 3.25 2.19  
Year to date precipitation 9.69 9.71  
Snow  
Snow T in 0.10 in 4.20 in (1983)
Month to date snowfall 12.0 3.3  
Since 1 July snowfall 115.4 123.2  
Snow Depth 0.00 in    
Sea Level Pressure  
Sea Level Pressure 30.00 in    
Wind  
Wind Speed 15 mph (West)    
Max Wind Speed 36 mph    
Max Gust Speed 44 mph    
Visibility 10 miles    
Events Rain , Snow    
T = Trace of Precipitation, MM = Missing Value Source: NWS Daily Summary

Daily Weather History Graph

Daily Weather History Graph

Search for Another Location

Airport:

Trip Planner

Search our weather history database for the weather conditions in past years. The results will help you decide how hot, cold, wet, or windy it might be!

Date:

Astronomy

Apr. 20, 2013 Rise Set
Actual Time 6:14 AM EDT 7:53 PM EDT
Civil Twilight 5:44 AM EDT 8:23 PM EDT
Nautical Twilight 5:07 AM EDT 8:59 PM EDT
Astronomical Twilight 4:28 AM EDT 9:39 PM EDT
Moon 2:26 PM EDT (4/20) 3:10 AM EDT (4/20)
Length of Visible Light 14h 39m
Length of Day
13h 39m
Waxing Gibbous, 71% of the Moon is Illuminated
Apr 20
Waxing Gibbous
Apr 25
Full
May 2
Last Quarter
May 9
New
May 18
First Quarter

Hourly Weather History & Observations

Time (EDT) Temp. Windchill Dew Point Humidity Pressure Visibility Wind Dir Wind Speed Gust Speed Precip Events Conditions
12:54 AM 43.0 °F 38.2 °F 32.0 °F 65% 29.77 in 10.0 mi WSW 8.1 mph - N/A   Overcast
1:54 AM 43.0 °F 38.8 °F 32.0 °F 65% 29.75 in 10.0 mi West 6.9 mph - N/A   Overcast
2:54 AM 43.0 °F 36.0 °F 30.9 °F 62% 29.75 in 10.0 mi West 13.8 mph - N/A   Overcast
3:54 AM 42.1 °F 34.9 °F 28.9 °F 60% 29.76 in 10.0 mi WSW 13.8 mph 20.7 mph N/A   Overcast
4:54 AM 42.1 °F 34.9 °F 28.9 °F 60% 29.77 in 10.0 mi WSW 13.8 mph - N/A   Overcast
5:54 AM 42.1 °F 39.2 °F 30.0 °F 62% 29.78 in 10.0 mi SW 4.6 mph - 0.00 in Rain Light Rain
6:54 AM 42.1 °F 34.2 °F 30.0 °F 62% 29.81 in 10.0 mi WSW 16.1 mph 24.2 mph 0.00 in Rain Light Rain
7:54 AM 43.0 °F 35.7 °F 27.0 °F 53% 29.84 in 10.0 mi West 15.0 mph 24.2 mph 0.00 in   Mostly Cloudy
8:54 AM 45.0 °F 38.2 °F 28.9 °F 53% 29.85 in 10.0 mi WSW 15.0 mph 21.9 mph N/A   Mostly Cloudy
9:54 AM 44.1 °F 35.7 °F 26.1 °F 49% 29.86 in 10.0 mi WSW 20.7 mph 28.8 mph N/A   Mostly Cloudy
10:54 AM 41.0 °F 31.4 °F 28.0 °F 60% 29.91 in 10.0 mi WSW 21.9 mph 32.2 mph 0.00 in   Mostly Cloudy
11:54 AM 46.9 °F - 24.1 °F 41% 29.94 in 10.0 mi West 25.3 mph 38.0 mph N/A   Mostly Cloudy
12:54 PM 44.1 °F 35.2 °F 23.0 °F 43% 29.97 in 9.0 mi West 23.0 mph 35.7 mph 0.00 in   Mostly Cloudy
1:54 PM 43.0 °F 33.3 °F 25.0 °F 49% 30.00 in 10.0 mi WSW 25.3 mph 36.8 mph N/A   Overcast
2:31 PM 39.2 °F 31.2 °F 28.4 °F 65% 30.03 in 10.0 mi WNW 13.8 mph 24.2 mph 0.00 in   Unknown
2:54 PM 39.9 °F 31.4 °F 26.1 °F 58% 30.05 in 10.0 mi WNW 16.1 mph 25.3 mph 0.00 in   Mostly Cloudy
3:54 PM 39.9 °F 31.4 °F 26.1 °F 58% 30.08 in 10.0 mi WNW 16.1 mph 23.0 mph 0.00 in   Unknown
4:54 PM 37.9 °F 28.2 °F 25.0 °F 60% 30.13 in 9.0 mi WNW 18.4 mph 27.6 mph 0.00 in Snow Light Snow
5:54 PM 37.0 °F 26.7 °F 24.1 °F 59% 30.18 in 9.0 mi WNW 19.6 mph 28.8 mph 0.00 in Snow Light Snow
6:54 PM 36.0 °F 25.0 °F 21.9 °F 57% 30.22 in 9.0 mi West 20.7 mph 29.9 mph 0.00 in Snow Light Snow
7:54 PM 36.0 °F 26.0 °F 18.0 °F 48% 30.26 in 10.0 mi WNW 17.3 mph 25.3 mph 0.00 in   Mostly Cloudy
8:54 PM 35.1 °F 26.4 °F 19.0 °F 52% 30.31 in 10.0 mi WNW 12.7 mph - N/A   Scattered Clouds
9:54 PM 35.1 °F 25.9 °F 21.0 °F 57% 30.34 in 10.0 mi West 13.8 mph 21.9 mph N/A   Mostly Cloudy
10:54 PM 34.0 °F 27.2 °F 23.0 °F 64% 30.37 in 9.0 mi WNW 8.1 mph - 0.00 in Snow Light Snow
11:54 PM 33.1 °F 26.1 °F 21.9 °F 64% 30.39 in 10.0 mi WNW 8.1 mph - 0.00 in   Mostly Cloudy